Hourly Weather Roundup
Issued by NWS Central Illinois

Home | Current Version | Previous Version | Text Only | Print | Product List | Glossary On
Versions: 1 2 3 4 5 6 7 8 9 10 11 12 13 14 15 16 17 18 19 20 21 22 23 24 25 26 27 28 29 30 31 32 33 34 35 36 37 38 39 40 41 42 43 44 45 46 47 48 49 50
000
NZUS43 KILX 300210
HWRILX

AREA WEATHER ROUNDUP
NATIONAL WEATHER SERVICE, LINCOLN IL
900 PM CDT FRI AUG 29 2014


CITY           SKY/WX    TMP DP  RH WIND       PRES   REMARKS
BLOOMINGTON    PTCLDY    76  68  76 S12       29.91R
CHAMPAIGN      PTCLDY    75  71  87 SE7       29.93R
DECATUR        CLEAR     79  69  71 S12       29.91R HX  81
FLORA          CLEAR     73  69  85 S6        29.94S
GALESBURG      CLOUDY    70  68  95 S8        29.86R
JACKSONVILLE   LGT RAIN  73  72  95 CALM      29.88S
LACON          CLOUDY    77  70  78 S8        29.85R
LAWRENCEVILLE  CLEAR     75  72  90 S6        29.95R
LITCHFIELD     MOCLDY    76  69  77 S10       29.90S
$$


CITY           SKY/WX    TMP DP  RH WIND       PRES   REMARKS
LINCOLN        CLOUDY    78  70  75 S5        29.86R HX  80
MACOMB         MOCLDY    69  69 100 SE6       29.88R
MATTOON        CLEAR     76  67  73 S6        29.92R
MT CARMEL AP   CLEAR     77  73  88 CALM      29.95R
OLNEY-NOBLE AP CLEAR     75  70  83 CALM      29.95R
PARIS          PTCLDY    71  70  96 SE3       29.95R
PEORIA         LGT RAIN  72  68  87 SW9       29.90R
PONTIAC        PTCLDY    75  75 100 SE3       29.89R FOG
RANTOUL        CLEAR     76  69  79 S7        29.93R
ROBINSON       CLEAR     75  73  92 S5        29.95R
SPRINGFIELD    CLOUDY    74  70  87 NW5       29.90R
TAYLORVILLE    MOCLDY    75  70  83 S9        29.90R
$$

...REGIONAL REPORTS...


CITY           SKY/WX    TMP DP  RH WIND       PRES   REMARKS
CHICAGO O`HARE TSTM      79  69  71 S15       29.88S HX  81
KANKAKEE       MOCLDY    72  69  91 SE7       29.91R
MOLINE         CLOUDY    73  66  78 S14       29.82R
MOUNT VERNON   CLOUDY    79  66  65 S5        29.95R HX  81
PITTSFIELD     CLOUDY    73  70  89 S3        29.88R
QUINCY         CLOUDY    73  70  90 S8        29.86R
ROCKFORD       CLOUDY    72  65  78 S14       29.87R
$$


CITY           SKY/WX    TMP DP  RH WIND       PRES   REMARKS
BURLINGTON     CLOUDY    72  70  93 SE8       29.84R
CEDAR RAPIDS   LGT RAIN  69  69 100 SW5       29.80R FOG
DES MOINES     LGT RAIN  71  68  90 SW6       29.78R
KIRKSVILLE     PTCLDY    71  68  90 S5        29.84R
OTTUMWA        MOCLDY    70  69  97 S6        29.80S
ST LOUIS       MOCLDY    84  66  54 S9G20     29.90R HX  86
$$


CITY           SKY/WX    TMP DP  RH WIND       PRES   REMARKS
TERRE HAUTE    PTCLDY    74  70  87 S5        29.95R
EVANSVILLE     CLEAR     81  67  62 SE6       29.97R HX  83
INDIANAPOLIS   NOT AVBL
LAFAYETTE      MOCLDY    71  69  93 E6        29.94R
MADISON        MOCLDY    79  70  74 S13       29.83R HX  82
MILWAUKEE      PTCLDY    76  71  85 S15       29.87S
$$




USA.gov is the U.S. government's official web portal to all federal, state and local government web resources and services.